sat.trackr.live / text

‹ back to catalog

STARLINK-34399

NORAD 64444 · 2025-130G

PAYLOAD ACTIVE UNKNOWN

§ Identity

Operator
Country
US
Launch date
2025-06-18
Launch site
AFETR
Launch vehicle
Mass (kg)
RCS (m²)

Purposes: comms

External: N2YO · Heavens-Above · Gunter

§ Orbital elements

Epoch: 2026-09-20T06:27:23.332320Z

Period
93.85 min
Inclination
53.1571°
Eccentricity
0.0001264
Mean motion
15.34388935 rev/d
Perigee alt
461.9 km
Apogee alt
463.6 km
Semi-major
6,840.9 km
B*
3.4759e-4
RAAN
260.5075°
Arg perigee
67.2848°
Mean anomaly
292.8288°
Rev number
7,055

§ Raw data

STARLINK-343991 64444U 25130G   26263.26902005  .00011381  00000+0  34759-3 0  99902 64444  53.1571 260.5075 0001264  67.2848 292.8288 15.34388935 70554

JSON: /api/v1/satellites/64444 · /tle

For live sub-satellite position, see the globe view (requires WebGL).

§ Visibility from observer

Set your observer location to see the next 7 days of passes ≥ 10°. The values pass through the URL so the page stays shareable.

No JS? Fill the form by hand. The geolocation button needs JavaScript.